Location: Gartempe
(46.1501°N, 1.7371°E)
Time: 06:43:00
(UTC+00:00)

Daily predictions for brighter satellites

Satellite Brightness Start Highest point End
(mag) Time Altitude Azimuth Time Altitude Azimuth Time Altitude Azimuth
Cosmos 1459 Rocket 4.1 20:15:40 10° N 20:21:41 62° E 20:27:42 10° SSE
Cosmos 1331 Rocket 4.0 20:17:24 10° SSW 20:22:38 76° ESE 20:27:56 10° NNE
Cosmos 1626 2.5 20:22:07 10° SSE 20:25:38 44° E 20:29:10 10° NNE
Cosmos 1844 Rocket 3.0 20:20:05 10° NNW 20:25:45 71° WSW 20:31:23 10° SSE
Cosmos 1461 4.2 20:22:30 10° NW 20:26:15 33° WSW 20:29:51 10° S
IGS 5A 3.5 20:24:47 10° SSE 20:28:57 88° ENE 20:33:09 10° NNW
Meteor 1-16 Rocket 4.2 20:23:37 10° N 20:29:04 90° E 20:34:22 10° S
MetOp-B 4.3 20:25:38 10° SSE 20:30:56 67° ENE 20:36:16 10° N
FALCON 9 DEB 3.2 20:27:58 10° WSW 20:31:04 71° NNW 20:34:12 10° ENE
Cosmos 2278 Rocket 3.5 20:27:28 10° N 20:32:22 29° NE 20:37:15 10° ESE
Cosmos 1802 Rocket 4.2 20:26:48 10° N 20:33:05 62° ENE 20:39:23 10° SSE
X-37B 2.3 20:31:41 10° S 20:33:45 16° SSE 20:35:51 10° ESE
Cosmos 2322 3.8 20:28:38 10° S 20:34:11 61° ESE 20:39:46 10° NNE
ERS-2 3.8 20:31:21 10° N 20:34:45 37° WNW 20:38:08 10° SW
Cosmos 1953 2.5 20:32:23 10° NNW 20:36:28 76° W 20:40:30 10° S
Resurs 01 Rocket 1.9 20:34:04 10° S 20:38:27 72° WSW 20:42:52 10° NNW
Cosmos 1000 Rocket 4.5 20:32:26 10° S 20:38:33 76° E 20:44:42 10° NNE
COSMOS 2428 3.0 20:34:00 10° S 20:39:27 47° ESE 20:44:56 10° NE
FALCON 9 DEB 4.1 20:38:42 10° W 20:41:42 46° NNW 20:44:43 10° NE
Cosmos 1302 Rocket 4.0 20:41:15 10° S 20:46:26 63° ESE 20:51:37 10° NNE
Cosmos 1544 Rocket 3.6 20:44:00 10° N 20:48:29 87° E 20:52:54 10° S
BREEZE-M DEB (TANK) 2.4 20:46:26 10° WSW 20:48:49 85° SSE 20:53:37 10° ENE
Cosmos 1908 3.9 20:47:04 10° NNW 20:50:52 55° W 20:54:36 10° S
CZ-2C R/B 3.8 20:46:42 10° NNE 20:51:29 72° ESE 20:56:13 10° S
ATLAS CENTAUR R/B 4.3 20:49:28 10° ESE 20:51:47 13° E 20:54:55 10° ENE
Cosmos 1455 Rocket 3.9 20:48:02 10° NNW 20:52:23 52° W 20:56:42 10° S
SPOT 1/Viking Rocket 3.6 20:48:07 10° SSE 20:53:16 87° ENE 20:58:27 10° NNW
FALCON 9 DEB 4.3 20:50:27 10° W 20:53:26 41° NNW 20:56:25 10° NE
FALCON 9 DEB 4.0 20:50:54 10° W 20:53:55 47° NNW 20:56:58 10° NE
BREEZE-M DEB (TANK) 1.5 20:54:11 10° SW 20:56:30 60° SSE 21:00:29 10° ENE
Cosmos 2123 Rocket 4.0 21:02:00 10° S 21:08:18 80° E 21:14:40 10° N
Cosmos 1025 Rocket 3.6 21:04:05 10° SSW 21:08:23 60° W 21:12:43 10° N
Cosmos 2233 Rocket 4.3 21:02:45 10° N 21:08:49 55° ENE 21:14:01 14° SSE
Cosmos 968 Rocket 3.5 21:04:20 10° NNW 21:09:28 79° ENE 21:13:47 15° SSE
Cosmos 1980 4.4 21:05:21 10° SSE 21:10:20 33° ESE 21:15:22 10° NE
Cosmos 2228 3.9 21:07:29 10° N 21:11:35 36° ENE 21:14:34 16° SE
ARIANE 5 R/B 2.6 21:10:25 14° SSE 21:14:19 84° ENE 21:18:51 10° NNW
Cosmos 1607 4.4 21:09:23 10° NNW 21:15:45 57° NE 21:21:07 14° SE
Terra 2.3 21:12:09 15° SE 21:15:47 47° ENE 21:20:21 10° N
Cosmos 389 Rocket 3.3 21:13:19 10° N 21:16:30 34° ENE 21:18:28 19° SE
Cosmos 2219 Rocket 2.4 21:10:55 10° SSW 21:16:36 77° WNW 21:22:18 10° NNE
Cosmos 2061 Rocket 4.2 21:13:51 10° N 21:20:18 78° W 21:26:37 10° S
Cosmos 1536 Rocket 3.7 21:18:53 10° SSW 21:23:20 79° W 21:27:47 10° N
Uosat 12 SS-18 rocket 4.4 21:19:57 10° SW 21:24:21 78° NW 21:29:27 10° NE
ATLAS 3B R/B 3.1 21:18:32 10° SW 21:25:02 64° NW 21:31:48 10° NE
Cosmos 1346 Rocket 3.2 21:22:34 18° SSE 21:25:19 47° E 21:29:13 10° NNE
Cosmos 1992 Rocket 4.1 21:21:22 10° S 21:26:29 59° ESE 21:31:38 10° NNE
Cosmos 1486 Rocket 4.0 21:23:44 10° NNW 21:28:59 87° ENE 21:32:48 19° SSE
Cosmos 2333 Rocket 3.1 21:25:09 10° SW 21:30:45 54° WNW 21:36:23 10° NNE
Cosmos 1867 3.8 21:27:41 10° NW 21:33:08 66° WSW 21:37:01 19° SSE
CARTOSAT-1 4.0 21:30:07 14° S 21:33:43 57° W 21:38:00 10° NNW
Cosmos 1184 Rocket 4.3 21:36:38 20° ESE 21:37:11 21° E 21:39:42 10° NE
SL-4 R/B 1.9 21:33:16 10° WSW 21:37:31 89° NNW 21:41:27 10° ENE
Cosmos 1455 3.3 21:34:19 10° N 21:37:45 31° ENE 21:39:27 21° ESE
SPOT 5 3.0 21:34:14 17° S 21:38:07 79° WSW 21:42:55 10° NNW
Cosmos 2237 Rocket 2.3 21:37:19 12° S 21:42:21 55° ESE 21:47:50 10° NE
SL-16 R/B 3.6 21:41:05 17° SE 21:42:52 20° E 21:46:53 10° NE
ERS-1 Rocket 3.2 21:43:45 17° S 21:47:35 65° WSW 21:52:36 10° NNW
Cosmos 1354 Rocket 4.2 21:42:29 10° NNW 21:47:49 65° ENE 21:51:08 23° SE
Cosmos 2369 Rocket 4.5 21:45:46 10° N 21:49:13 16° NE 21:52:39 10° ENE
Meteor 2-5 Rocket 4.2 21:44:20 10° SSW 21:49:48 60° WNW 21:55:25 10° N
Lacrosse 5 rocket 4.0 21:47:17 10° WNW 21:49:57 19° NNW 21:52:34 10° NNE
Cosmos 1300 4.1 21:46:47 10° NNW 21:50:16 34° W 21:53:13 13° SSW
Geosat 4.0 21:51:56 23° SSE 21:55:06 75° WSW 22:00:09 10° NNW
USA 215 4.3 21:50:13 10° ENE 21:55:12 23° SE 21:56:37 21° SE
ATLAS CENTAUR R/B 4.0 21:55:47 10° W 21:57:56 13° WSW 22:00:07 10° SW
Meteor 1-4 Rocket 4.4 21:58:58 10° NNE 22:01:24 18° ENE 22:02:27 16° E
Cosmos 1464 Rocket 4.4 21:56:51 10° N 22:03:06 54° ENE 22:06:55 24° SE
Meteor 2-10 Rocket 3.9 22:03:33 10° NNW 22:08:29 56° W 22:11:42 21° SSW
Meteor 1-24 Rocket 4.4 22:04:09 10° SSW 22:09:22 51° WNW 22:14:49 10° N
X-37B 0.6 22:06:52 10° WSW 22:09:57 51° SSE 22:10:09 50° SSE
NOSS 0 Rocket 4.1 22:04:05 10° SSW 22:10:17 76° WNW 22:16:35 10° NNE
Cosmos 1726 Rocket 3.6 22:09:29 10° N 22:13:56 80° W 22:16:06 30° S
Cosmos 2278 Rocket 2.6 22:11:15 10° NW 22:16:46 54° WSW 22:19:57 25° S
SJ 16-02 2.7 22:17:52 10° N 22:21:46 30° ENE 22:23:50 21° ESE
Okean 1-7 Rocket 3.8 22:20:45 34° SSE 22:22:22 53° E 22:26:41 10° NNE
Cosmos 2058 Rocket 3.0 22:18:07 10° N 22:22:34 78° E 22:24:20 36° SSE
Cosmos 2297 4.3 22:17:22 10° NNW 22:22:50 48° ENE 22:26:13 22° ESE
COSMOS 2428 4.5 22:18:46 10° WSW 22:23:54 33° NW 22:29:04 10° NNE
Spot 4 4.4 22:22:20 27° SE 22:24:33 47° ENE 22:29:07 10° N
Cosmos 1943 Rocket 3.0 22:23:05 10° NNW 22:28:20 42° NE 22:31:41 21° ESE
USA 267 4.4 22:23:56 10° E 22:29:59 42° NNE 22:36:04 10° NW
Cosmos 1892 Rocket 4.0 22:35:24 25° SSW 22:37:49 60° WNW 22:42:16 10° N
Cosmos 2034 Rocket 4.0 22:35:08 10° N 22:41:19 72° E 22:44:25 31° SSE
NOSS 2-3 (C) 4.1 22:42:31 36° SE 22:42:47 36° ESE 22:47:01 10° NE
Cosmos 1441 Rocket 3.2 22:45:54 42° SSW 22:47:05 75° WNW 22:50:53 10° N
GP-B 4.4 22:48:26 10° NNE 22:52:15 27° E 22:53:25 24° ESE
USA 32 4.5 22:48:22 10° N 22:53:30 50° E 22:55:33 32° SE
Terra 3.7 22:51:02 14° SW 22:53:46 22° W 22:57:26 10° NW
Cosmos 1174 4.4 22:52:34 24° SSW 22:56:04 82° ESE 23:00:44 10° NE
Meteor 1-21 Rocket 4.4 22:55:28 26° SSW 22:58:47 69° WNW 23:04:33 10° N
ALOS 2 2.8 23:00:30 39° SE 23:01:53 60° ENE 23:06:13 10° N
Cosmos 1626 Rocket 3.5 23:01:37 45° S 23:02:59 87° E 23:07:26 10° N
GEOS 3 Rocket 3.9 23:04:53 26° SE 23:07:59 70° NE 23:13:18 10° NW
Cosmos-2242 3.9 23:05:13 10° N 23:09:24 41° ENE 23:10:41 32° ESE
Cosmos 1777 Rocket 4.4 23:05:43 10° NNW 23:10:50 52° WSW 23:12:44 35° SSW
Cosmos 1602 Rocket 3.5 23:11:17 48° S 23:12:30 79° E 23:17:00 10° NNE
Cosmos 1455 4.2 23:10:21 10° NW 23:13:06 19° W 23:14:20 17° WSW
Cosmos 1703 4.4 23:12:56 27° WSW 23:14:26 38° WNW 23:18:10 10° N
Tsikada Rocket 3.9 23:12:01 34° S 23:14:54 83° E 23:21:05 10° N
Aureole 3 4.0 23:12:39 10° N 23:16:51 61° E 23:18:31 39° SE
USA 229 DEB 3.6 23:14:17 33° S 23:17:11 61° ESE 23:23:52 10° NE
USA 229 3.6 23:14:25 33° S 23:17:17 60° ESE 23:23:58 10° NE
SL-4 R/B 3.4 23:13:37 10° WNW 23:17:24 38° N 23:20:55 10° ENE
Cosmos 1758 Rocket 3.8 23:19:59 46° SE 23:20:55 58° E 23:25:14 10° NNE
COBE Rocket 4.0 23:19:18 41° S 23:20:59 68° W 23:25:52 10° NNW
NOSS 3-1 (C) 3.2 23:20:16 24° SW 23:23:40 84° NW 23:29:59 10° NE
ATLAS CENTAUR R/B 3.7 23:19:55 10° WSW 23:24:57 76° NW 23:38:44 10° NE
SL-16 R/B 2.4 23:22:55 24° SW 23:26:24 67° WNW 23:32:05 10° NNE
Cosmos 2237 Rocket 4.0 23:21:58 10° WSW 23:26:44 28° NW 23:31:33 10° N
SAR-Lupe-2 3.8 23:25:01 10° NNE 23:28:33 51° ESE 23:28:37 51° ESE
Lacrosse 5 rocket 4.2 23:27:57 10° NNW 23:30:10 15° N 23:32:22 10° NE
Cosmos 405 Rocket 4.2 23:30:09 23° E 23:30:15 23° E 23:33:14 10° NE
ATLAS 5 CENTAUR R/B 3.7 23:32:08 12° E 23:32:08 12° E 23:33:04 10° E
Cosmos 2369 Rocket 2.4 23:28:36 10° NNW 23:34:20 70° ENE 23:37:04 32° SE
NOSS 2-3 (E) 3.6 23:33:37 37° SW 23:35:15 76° NW 23:40:06 10° NE
USA 305 4.1 23:36:25 27° ESE 23:36:25 27° ESE 23:39:08 10° ENE
Elektron 1 4.5 23:32:38 10° NW 23:34:54 43° W 23:34:54 43° W
Meteor 1-4 Rocket 3.8 23:33:25 10° NNW 23:36:25 28° W 23:36:35 28° W
Cosmos 1356 4.2 23:36:44 39° E 23:36:44 39° E 23:39:45 10° NNE
NOSS 3-1 (A) 3.1 23:34:45 37° SSW 23:36:57 74° SE 23:43:12 10° NE
USA 215 3.1 23:32:19 10° NE 23:38:53 78° SE 23:43:55 18° SW
Cosmos 2221 4.5 23:35:40 10° NNE 23:38:55 21° ENE 23:40:49 16° ESE
Cosmos 1937 Rocket 4.3 23:36:34 10° NNW 23:41:43 46° ENE 23:44:34 24° ESE
Cosmos 1898 Rocket 3.6 23:42:33 10° NNW 23:47:47 68° ENE 23:49:55 35° SE
Cosmos 2279 Rocket 4.1 23:43:01 10° N 23:49:16 71° E 23:52:07 34° SSE
Cosmos 1812 Rocket 4.2 23:45:35 10° NNW 23:49:45 44° W 23:50:41 38° SW
MTI 3.9 23:47:45 10° N 23:50:34 64° NW 23:50:34 64° NW
Lacrosse 4 Rocket 3.3 23:50:16 10° N 23:53:43 25° NE 23:56:50 11° ESE
